カタログに戻る

STARLINK-5722

運用中通信VLEO
NORAD 55610·PAYLOAD·🇺🇸 United States

打ち上げ Feb 12, 2023 から Cape Canaveral Space Force Station

Loading…

次のパス (今後24時間)

TLE

最新Source: CelesTrak SupGP

元期: Sep 14, 2026, 21:24 UTC

1 55610C 23020AT  26257.89215278 -.00006822  00000+0 -24705-3 0  2575
2 55610  43.0043   5.9789 0002153 281.3257  27.2540 15.27586332    13

AllMySatでSTARLINK-5722をリアルタイム追跡

Download on the App Store